Terminal Aerodrome Forecast
Issued by NWS Nashville, TN

Home | Current Version | Previous Version | Text Only | Print | Product List | Glossary On
Versions: 1 2 3 4 5 6 7 8 9 10 11 12 13 14 15 16 17 18 19 20 21 22
000
FTUS44 KOHX 170500
TAFBNA
TAF
KBNA 170525Z 1706/1806 34004KT P6SM FEW040
     FM171000 00000KT 4SM BR SKC
     FM171400 36004KT P6SM SKC
     FM171700 34004KT P6SM SCT040 BKN200
     FM180100 01005KT P6SM BKN100 BKN200=

USA.gov is the U.S. government's official web portal to all federal, state and local government web resources and services.